Regional Weather Roundup
Issued by NWS State College, PA

Home | Current Version | Previous Version | Text Only | Print | Product List | Glossary Off
Versions: 1 2 3 4 5 6 7 8 9 10 11 12 13 14 15 16 17 18 19 20 21 22 23 24 25 26 27 28 29 30 31 32 33 34 35 36 37 38 39 40 41 42 43 44 45 46 47 48 49 50

000
ASUS41 KCTP 052010
RWRCTP

REGIONAL WEATHER ROUNDUP
NATIONAL WEATHER SERVICE STATE COLLEGE PA
400 PM EDT SUN JUL 05 2015

Note: "fair" indicates few or no clouds below 12,000 feet with no
significant weather and/or obstructions to visibility.

* = STATION THAT DOES NOT REPORT PRECIPITATION /E.G. RAIN...SNOW...ETC/
    THUNDER OR FOG.

PAZ002>004-007>009-013>016-020>023-029>032-052100-
WESTERN PENNSYLVANIA

CITY           SKY/WX    TMP DP  RH WIND       PRES   REMARKS
ERIE           MOSUNNY   76  55  48 NE9       30.14S
MEADVILLE      MOSUNNY   79  54  41 E3        30.15S
FRANKLIN*      MOSUNNY   79  55  44 NE5       30.16S
NEW CASTLE     FAIR      80  53  39 CALM      30.13F
BEAVER COUNTY  NOT AVBL
BUTLER*        MOSUNNY   79  55  44 SE6       30.15F
PITTSBURGH INT CLOUDY    81  58  45 SE6       30.11F
PITTSBURGH     MOSUNNY   80  53  39 VRB5      30.11F
INDIANA*       SUNNY     81  61  50 VRB5      30.16F
LATROBE        MOSUNNY   81  63  54 E6        30.12F
WASHINGTON CO* NOT AVBL
$$

PAZ004>006-010>012-017>019-024>028-033>037-041-042-045-046-049>053-052100-
CENTRAL PENNSYLVANIA

CITY           SKY/WX    TMP DP  RH WIND       PRES   REMARKS
BRADFORD       MOSUNNY   76  49  38 VRB3      30.18S
DUBOIS         MOSUNNY   78  59  51 SE7       30.15F
CLEARFIELD     SUNNY     78  54  43 N5        30.16F
JOHNSTOWN      MOSUNNY   75  59  57 VRB6      30.16F
ALTOONA        MOSUNNY   78  62  57 E8        30.16F
STATE COLLEGE  NOT AVBL
WILLIAMSPORT   SUNNY     80  62  54 E3        30.11F
SELINSGROVE    MOSUNNY   78  63  59 CALM      30.14F
FT INDIANTOWN  PTSUNNY   78  66  66 SW5       30.13F
CAPITAL CITY   MOSUNNY   79  64  60 SE5       30.12F
HARRISBURG     CLOUDY    79  66  64 CALM      30.12F
YORK           MOSUNNY   82  67  60 CALM      30.13F
$$

PAZ038>040-043-044-047-048-054-055-060>062-067>071-052100-
EASTERN PENNSYLVANIA

CITY           SKY/WX    TMP DP  RH WIND       PRES   REMARKS
SCRANTON       NOT AVBL
MOUNT POCONO   NOT AVBL
ALLENTOWN      SUNNY     83  61  47 VRB3      30.12F
QUAKERTOWN*    CLEAR     82  64  54 SW3       30.14S
READING        MOSUNNY   81  60  48 CALM      30.12S
LANCASTER      MOSUNNY   78  65  63 W5        30.13F
COATESVILLE    PTCLDY    77  66  69 CALM      30.15S
POTTSTOWN      PTSUNNY   78  65  63 VRB3      30.14F
BLUE BELL      MOSUNNY   82  66  57 W3        30.12F
DOYLESTOWN     SUNNY     80  62  54 NW5       30.12F
WILLOW GROVE   NOT AVBL
NORTH PHILA    MOSUNNY   86  60  41 CALM      30.13S
PHILADELPHIA   MOSUNNY   83  62  49 S7        30.12S
$$



USA.gov is the U.S. government's official web portal to all federal, state and local government web resources and services.